Location: Madrid
(40.4000°N, 3.6830°W)
Time: 20:25:48
(UTC+02:00)

ISS - Pass Details

Date: 21 September 2020
Orbit: 419 x 421 km, 51.6° (Epoch: 30 September)

Event Time Altitude Azimuth Distance (km) Brightness Sun altitude
Rises 22:26:06 0° 286° (WNW) 2,364 1.4 -25.5°
Reaches altitude 10° 22:28:54 10° 311° (NW) 1,501 0.0 -25.9°
Maximum altitude 22:30:54 15° 348° (NNW) 1,247 -1.0 -26.3°
Enters shadow 22:30:58 15° 349° (N) 1,247 -1.0 -26.3°
